Location: Luch�
(46.8962°N, 0.3313°W)
Time: 20:56:24
(UTC+00:00)

Daily predictions for brighter satellites

Satellite Brightness Start Highest point End
(mag) Time Altitude Azimuth Time Altitude Azimuth Time Altitude Azimuth
Cosmos 1674 Rocket 3.5 18:19:13 10° N 18:23:33 62° ENE 18:27:48 10° SSE
Cosmos 968 Rocket 3.9 18:18:31 10° SSW 18:23:45 72° WNW 18:29:03 10° NNE
IRS-1C Rocket 4.5 18:19:34 10° SE 18:24:32 45° ENE 18:29:31 10° N
SJ 16-02 3.0 18:24:08 10° SE 18:26:27 14° E 18:28:46 10° ENE
CZ-4C R/B 3.2 18:23:14 10° NNE 18:26:51 83° WNW 18:30:25 10° SSW
Cosmos 2184 Rocket 4.2 18:22:35 10° SSE 18:28:40 51° E 18:34:44 10° NNE
Meteor 1-21 4.2 18:24:25 10° N 18:30:08 81° ENE 18:35:44 10° SSE
Lacrosse 4 Rocket 3.9 18:27:53 10° W 18:31:02 21° NW 18:34:13 10° N
Cosmos 1707 2.8 18:27:13 10° N 18:31:06 57° E 18:34:56 10° SSE
HJ-1C 3.7 18:28:16 10° SE 18:31:23 42° ENE 18:34:30 10° N
COSMO-SKYMED 1 3.0 18:28:13 10° N 18:32:33 69° WNW 18:36:52 10° SSW
CZ-4B R/B 4.3 18:28:36 10° S 18:33:53 51° W 18:39:19 10° NNW
Cosmos 1626 3.4 18:37:16 10° NNE 18:40:10 21° ENE 18:43:02 10° ESE
KORONAS-FOTON 4.3 18:39:35 10° N 18:43:07 36° ENE 18:46:37 10° SE
OBJECT-B 2.3 18:43:09 13° ESE 18:44:51 18° ENE 18:47:08 10° NNE
Cosmos 1733 Rocket 3.9 18:43:12 10° SSW 18:47:26 55° WNW 18:51:42 10° N
Cosmos 1340 3.1 18:43:54 10° NNW 18:47:39 64° W 18:51:23 10° S
Cosmos 2154 Rocket 4.2 18:41:54 10° SSE 18:47:59 50° E 18:54:06 10° NNE
In-Cosmos 22 4.0 18:43:25 10° N 18:48:44 80° ENE 18:54:02 10° SSE
Cosmos 1503 Rocket 3.9 18:43:57 10° SSW 18:49:09 76° ESE 18:54:20 10° NNE
Geosat 4.1 18:44:21 10° NE 18:49:17 54° ESE 18:54:11 10° SSW
Atlas Centaur 2 4.4 18:43:59 10° SW 18:50:07 23° S 18:56:05 11° SE
MetOp-A 4.3 18:45:24 10° SE 18:50:34 51° ENE 18:55:45 10° N
Cosmos 1184 Rocket 4.0 18:49:08 10° NNE 18:51:43 22° ENE 18:53:05 17° ESE
USA 305 4.2 18:48:38 10° WNW 18:52:26 31° N 18:56:04 11° ENE
Cosmos 1733 4.4 18:50:06 10° SE 18:53:02 22° E 18:55:59 10° NE
H-2A R/B 1.9 18:49:03 10° NNE 18:53:16 71° ESE 18:57:22 10° S
SL-08 RB Rocket 3.8 18:49:25 10° S 18:53:52 77° WSW 18:58:22 10° NNW
Cosmos 1782 Rocket 4.0 18:52:42 10° SSE 18:56:48 38° E 19:00:55 10° NNE
Cosmos 1777 Rocket 4.3 18:54:14 10° S 18:59:08 42° ESE 19:04:03 10° NE
Nadezhda 3 Rocket 4.0 18:55:18 10° N 19:01:26 65° ENE 19:07:33 10° SSE
ISS -2.6 18:59:45 10° W 19:02:57 38° N 19:05:32 14° ENE
COSMOS 2455 3.3 18:57:40 10° NW 19:03:40 65° WSW 19:09:36 10° SSE
Cosmos 1346 Rocket 3.0 19:01:04 10° N 19:04:59 48° ENE 19:08:40 11° SSE
CSL-04 Rocket 3.7 18:59:49 10° SSE 19:05:06 63° ENE 19:10:29 10° N
Cosmos 1354 Rocket 4.0 19:00:31 10° SSW 19:05:46 88° ESE 19:11:03 10° NNE
USA 307 4.2 19:03:24 10° WNW 19:07:14 31° N 19:10:15 14° ENE
DMSP B5D1-3 4.5 19:02:55 10° NNE 19:08:03 86° ESE 19:13:09 10° SSW
Cosmos 1025 Rocket 3.8 19:08:09 10° N 19:12:03 31° ENE 19:13:46 23° ESE
H-2A R/B 4.5 19:11:45 10° SSW 19:15:47 33° W 19:19:54 10° NNW
Okean-O 2.8 19:13:24 10° S 19:17:50 76° WSW 19:22:17 10° NNW
Cosmos 1238 Rocket 3.9 19:12:45 10° S 19:19:06 81° W 19:24:39 10° N
USA 306 4.1 19:16:45 10° WNW 19:20:38 33° N 19:22:58 19° ENE
Cosmos 1975 Rocket 3.0 19:19:40 10° N 19:24:06 67° E 19:27:53 14° SSE
SeaSat 1 2.6 19:22:15 23° SE 19:25:13 58° NE 19:30:05 10° NNW
Cosmos 2297 Rocket 4.3 19:24:33 10° NNE 19:26:34 12° NNE 19:28:35 10° NE
USA 308 4.1 19:22:50 10° WNW 19:26:44 33° N 19:28:52 21° ENE
USA 281 4.5 19:22:07 10° NE 19:25:02 18° ENE 19:25:02 18° ENE
Cosmos 773 Rocket 4.3 19:23:14 10° NNW 19:28:28 70° WSW 19:33:43 10° S
ATLAS CENTAUR R/B 2.9 19:25:58 10° NW 19:30:22 40° WSW 19:34:53 10° S
Cosmos 1300 Rocket 3.9 19:29:52 25° SE 19:31:54 41° E 19:36:01 10° NNE
Resurs 01 Rocket 2.9 19:33:41 24° ENE 19:33:41 24° ENE 19:37:08 10° NNE
BREEZE-M DEB (TANK) 4.1 19:34:58 10° WSW 19:36:16 15° SSW 19:36:21 15° SSW
Meteor 1-24 Rocket 4.2 19:31:47 10° N 19:36:46 38° ENE 19:38:10 32° ESE
CZ-4B R/B 1.9 19:34:01 10° N 19:37:01 54° WNW 19:40:04 10° SSW
Cosmos 1943 Rocket 3.1 19:31:53 10° SW 19:37:18 50° WNW 19:42:48 10° NNE
Lacrosse 5 rocket 2.3 19:33:20 10° WNW 19:37:42 46° SW 19:40:05 23° SSE
Cosmos 2341 Rocket 4.0 19:31:43 10° S 19:37:54 61° E 19:44:11 10° NNE
Cosmos 1441 Rocket 3.9 19:34:26 10° N 19:37:35 34° ENE 19:37:35 34° ENE
Cosmos 2366 rocket 4.3 19:35:45 20° SE 19:39:25 40° E 19:45:06 10° NNE
USA 186 1.5 19:39:12 54° S 19:39:47 80° W 19:42:53 10° NNW
Resurs 1-3 3.9 19:39:52 40° ESE 19:40:44 45° ENE 19:44:56 10° N
SL-27 R/B 3.9 19:38:31 10° N 19:40:24 22° NNE 19:40:24 22° NNE
USA 276 2.8 19:39:07 10° WNW 19:42:09 44° N 19:42:32 42° NNE
Cosmos 1833 4.1 19:39:48 10° NNW 19:45:27 72° ENE 19:47:57 34° SE
CZ-4 R/B 4.1 19:45:56 10° SW 19:48:40 18° W 19:51:24 10° NW
Cosmos 2227 Rocket 4.3 19:46:36 10° N 19:49:02 13° NE 19:50:29 12° NE
Cosmos 2218 Rocket 4.1 19:45:03 20° SSE 19:49:06 49° E 19:55:03 10° NNE
Cosmos 1315 Rocket 2.6 19:45:25 10° S 19:49:23 84° E 19:53:26 10° NNE
Cosmos 2369 Rocket 2.3 19:43:49 10° SSW 19:49:30 80° WNW 19:55:10 10° NNE
APEX 3.4 19:45:06 10° NNW 19:49:59 62° ENE 19:50:35 55° E
SJ-6B 3.0 19:53:28 32° S 19:55:17 76° W 19:59:24 10° NNW
SL-14 R/B 3.2 19:52:26 10° N 19:56:27 88° W 19:57:12 57° S
USA 215 3.4 19:52:49 28° SE 19:56:30 68° SW 20:03:04 10° NW
MOS 1 4.3 19:54:16 37° SE 19:56:32 65° ENE 20:02:10 10° N
Ariane Rocket 3.1 19:56:37 47° ESE 19:57:37 55° ENE 20:02:35 10° N
Cosmos 1805 3.9 19:56:04 10° SSW 19:59:51 54° WNW 20:03:42 10° N
IRS-1A Rocket 4.3 19:59:04 38° SE 20:01:19 69° ENE 20:07:13 10° N
EO 1 Delta rocket 3.9 20:02:47 45° SSE 20:04:18 79° ENE 20:09:52 10° N
SJ 16-02 1.7 20:00:04 10° SSW 20:04:27 65° WNW 20:08:53 10° NNE
CENTAUR R/B 3.8 19:59:18 10° S 20:09:38 15° NE 20:10:56 10° NE
Cosmos 1959 Rocket 4.4 20:01:17 21° S 20:05:38 64° E 20:11:52 10° NNE
Cosmos 864 Rocket 4.4 20:03:58 26° SSE 20:07:36 64° E 20:13:44 10° NNE
Cosmos 1538 Rocket 4.4 20:04:49 10° NNW 20:10:07 63° WSW 20:12:38 31° S
Meteor 1-15 Rocket 4.3 20:08:49 10° SSW 20:14:21 74° WNW 20:19:59 10° N
Helios 1A Rocket 2.9 20:14:54 75° WSW 20:15:01 76° WSW 20:19:06 10° NNW
Cosmos 1626 4.1 20:12:11 10° NNW 20:15:23 28° W 20:17:33 16° SW
OBJECT-B 2.8 20:16:04 23° WSW 20:16:47 25° W 20:19:29 10° NW
Cosmos 1656 Rocket 3.9 20:11:52 10° SW 20:17:26 70° WNW 20:22:57 10° NNE
Okean 2 Rocket 3.2 20:18:26 64° NNE 20:18:26 64° NNE 20:22:12 10° N
Cosmos 158 Rocket 4.5 20:21:24 10° NNW 20:26:16 52° WSW 20:27:29 42° SSW
Cosmos 1766 4.4 20:25:45 30° SW 20:27:09 43° WNW 20:30:54 10° N
Meteor 1-22 Rocket 4.1 20:25:16 43° S 20:27:13 87° E 20:33:04 10° NNE
Sich 1 Rocket 4.2 20:25:53 23° SSW 20:28:30 55° WNW 20:32:57 10° N
Meteor 2-5 Rocket 3.9 20:24:14 10° NNW 20:29:45 68° W 20:31:28 44° SSW
NOSS 3-2 (A) 3.1 20:25:48 10° SSW 20:31:18 76° SE 20:37:43 10° NE
SPOT 3 Rocket 3.7 20:32:06 57° NE 20:32:06 57° NE 20:36:33 10° N
USA 305 3.8 20:28:46 10° NW 20:32:05 46° NNW 20:32:05 46° NNW
Atlas Centaur 2 4.3 20:32:16 10° SW 20:38:36 24° S 20:38:39 24° S
ISS -1.2 20:37:02 10° WNW 20:38:31 22° NW 20:38:31 22° NW
SL-8 Rocket 4.4 20:35:06 10° SSW 20:41:18 61° WNW 20:47:34 10° N
Cosmos 1536 Rocket 4.3 20:38:53 10° NNW 20:42:26 51° NW 20:42:26 51° NW
Terra 4.0 20:46:31 16° NNE 20:46:31 16° NNE 20:47:55 10° NNE
Meteor 2-10 4.4 20:42:27 33° SSW 20:44:57 66° WNW 20:50:26 10° N
USA 307 4.2 20:43:30 10° NW 20:46:19 38° NW 20:46:19 38° NW
BREEZE-M R/B 3.6 20:47:00 10° WNW 20:49:18 44° WNW 20:49:18 44° WNW
Cosmos 923 Rocket 4.3 20:46:37 10° NNW 20:51:29 60° W 20:51:29 60° W
SL-08 R/B 4.5 20:55:55 71° NNE 20:55:55 71° NNE 21:01:22 10° N
Cosmos 1727 Rocket 4.0 20:51:39 10° NNW 20:57:58 75° W 20:58:28 70° SW
SeaSat 1 4.3 21:02:03 21° SW 21:03:02 23° WSW 21:06:55 10° NW
Cosmos 1680 Rocket 4.1 20:59:56 10° NNW 21:04:16 54° WNW 21:04:16 54° WNW
SPOT 1/Viking Rocket 4.3 21:08:48 50° NNW 21:08:48 50° NNW 21:12:39 10° NNW
Resurs 01 Rocket 3.3 21:11:15 32° WNW 21:11:15 32° WNW 21:14:05 10° NNW
USA 281 3.1 21:05:25 10° NNE 21:11:50 82° NNW 21:11:50 82° NNW
Cosmos 2297 Rocket 3.3 21:06:43 10° NNW 21:10:29 36° NNE 21:10:29 36° NNE
Cosmos 2227 Rocket 3.6 21:29:01 10° NNW 21:32:18 32° N 21:32:18 32° N
Cosmos 2263 Rocket 4.4 21:46:26 10° N 21:48:36 16° NNE 21:48:36 16° NNE
CENTAUR R/B 3.5 21:56:39 43° N 21:56:39 43° N 22:02:14 10° NE
